CW9443 Weather Reports


time (UTC)temp
C
wind
direction
speed
KPH
gust
KPH
rain 1hr
cm
rain 24hr
cm
rain mn
cm
humidity
%
barometer
mb
20260507040024 14 221 0.0 0.0 0.00 0.00 0.00 82 1015.6
20260507034524 14 221 0.0 0.0 0.00 0.00 0.00 81 1015.4
20260507033024 15 221 0.0 0.0 0.00 0.00 0.00 80 1015.5
20260507030024 15 221 0.0 0.0 0.00 0.00 0.00 76 1015.0
20260507024525 16 221 0.0 0.0 0.00 0.00 0.00 74 1014.9
20260507023022 16 221 0.0 0.0 0.00 0.00 0.00 71 1014.8
20260507020021 17 221 0.0 0.0 0.00 0.00 0.00 68 1014.7
20260507014518 17 221 0.0 0.0 0.00 0.00 0.00 67 1014.6
20260507013021 18 221 0.0 0.0 0.00 0.00 0.00 64 1014.6
20260507010014 19 215 0.0 0.0 0.00 0.00 0.00 59 1014.6
20260507004517 19 218 0.0 0.0 0.00 0.00 0.00 59 1014.6
20260507003026 20 213 0.0 0.0 0.00 0.00 0.00 57 1014.7
20260507001530 20 216 0.0 0.0 0.00 0.00 0.00 57 1014.7
20260507000025 20 209 0.0 0.0 0.00 0.00 0.00 56 1014.7
20260506234530 21 211 0.0 0.0 0.00 0.00 0.00 57 1014.6
20260506233045 21 242 0.0 0.0 0.00 0.00 0.00 57 1014.6
20260506231545 21 257 0.0 0.0 0.00 0.00 0.00 58 1014.7
20260506230047 21 234 0.0 0.0 0.00 0.00 0.00 57 1014.9
20260506223045 22 215 0.0 0.0 0.00 0.00 0.00 55 1015.0
20260506221544 21 202 3.2 0.0 0.00 0.00 0.00 55 1015.2
20260506220056 22 234 1.6 0.0 0.00 0.00 0.00 53 1015.5
20260506213034 22 206 3.2 0.0 0.00 0.00 0.00 54 1015.9
20260506211536 21 220 3.2 0.0 0.00 0.00 0.00 55 1016.0
20260506204539 22 226 3.2 0.0 0.00 0.00 0.00 56 1016.0
20260506203111 21 204 4.8 0.0 0.00 0.00 0.00 57 1016.1
20260506201523 22 218 3.2 0.0 0.00 0.00 0.00 58 1016.3
20260506200025 21 206 4.8 0.0 0.00 0.00 0.00 58 1016.5
20260506194521 21 220 3.2 0.0 0.00 0.00 0.00 57 1016.5
20260506191552 21 244 3.2 0.0 0.00 0.00 0.00 54 1016.6
20260506190050 21 242 1.6 0.0 0.00 0.00 0.00 53 1016.7
20260506184553 20 0.0 0.0 0.00 0.00 0.00 56 1016.9
20260506181508 20 244 3.2 0.0 0.00 0.00 0.00 55 1017.0
20260506180007 20 247 3.2 0.0 0.00 0.00 0.00 58 1017.0
20260506174611 19 245 1.6 0.0 0.00 0.00 0.00 59 1017.0
20260506173101 18 249 1.6 0.0 0.00 0.00 0.00 59 1017.0
20260506171606 18 253 0.0 0.0 0.00 0.00 0.00 60 1017.1
20260506170055 17 256 1.6 0.0 0.00 0.00 0.00 64 1017.0
20260506164559 17 256 1.6 0.0 0.00 0.00 0.00 64 1017.1
20260506163114 17 266 0.0 0.0 0.00 0.00 0.00 64 1017.0
20260506161552 17 269 0.0 0.0 0.00 0.00 0.00 66 1017.0
20260506160051 16 271 0.0 0.0 0.00 0.00 0.00 67 1017.0
20260506154556 16 271 0.0 0.0 0.00 0.00 0.00 67 1017.0
20260506153109 15 271 0.0 0.0 0.00 0.00 0.00 70 1017.0
20260506151553 15 271 0.0 0.0 0.00 0.00 0.00 71 1017.0
20260506150051 14 271 0.0 0.0 0.00 0.00 0.00 76 1017.0
20260506144512 14 271 0.0 0.0 0.00 0.00 0.00 76 1017.0
20260506143011 13 271 0.0 0.0 0.00 0.00 0.00 79 1016.8
20260506141505 12 271 0.0 0.0 0.00 0.00 0.00 82 1016.7
20260506140008 12 271 0.0 0.0 0.00 0.00 0.00 84 1016.7
20260506134514 11 271 0.0 0.0 0.00 0.00 0.00 88 1016.7
20260506133013 10 271 0.0 0.0 0.00 0.00 0.00 90 1016.6
20260506131518 9 271 0.0 0.0 0.00 0.00 0.00 90 1016.6
20260506130012 9 271 0.0 0.0 0.00 0.00 0.00 89 1016.4
20260506124529 9 271 0.0 0.0 0.00 0.00 0.00 89 1016.3
20260506123029 9 271 0.0 0.0 0.00 0.00 0.00 89 1016.1
20260506121651 10 277 0.0 0.0 0.00 0.00 0.00 88 1016.0
20260506120037 10 277 0.0 0.0 0.00 0.00 0.00 88 1016.0
20260506114534 10 277 0.0 0.0 0.00 0.00 0.00 88 1015.9
20260506113034 10 277 0.0 0.0 0.00 0.00 0.00 89 1015.9
20260506110020 10 277 0.0 0.0 0.00 0.00 0.00 88 1015.7
20260506104518 10 277 0.0 0.0 0.00 0.00 0.00 88 1015.8
20260506103018 10 277 0.0 0.0 0.00 0.00 0.00 88 1015.8
20260506100028 10 277 0.0 0.0 0.00 0.00 0.00 89 1015.9
20260506094526 10 277 0.0 0.0 0.00 0.00 0.00 89 1016.0
20260506093023 10 277 0.0 0.0 0.00 0.00 0.00 89 1016.1
20260506090028 10 277 0.0 0.0 0.00 0.00 0.00 88 1016.2
20260506084535 10 277 0.0 0.0 0.00 0.00 0.00 88 1016.2
20260506083031 10 277 0.0 0.0 0.00 0.00 0.00 89 1016.3
20260506073014 11 277 0.0 0.0 0.00 0.00 0.00 88 1016.3
20260506061516 11 277 0.0 0.0 0.00 0.00 0.00 87 1015.6
20260506050117 12 277 0.0 0.0 0.00 0.00 0.00 85 1015.2
20260506043036 12 277 0.0 0.0 0.00 0.00 0.00 83 1014.8
20260506041550 12 277 0.0 0.0 0.00 0.00 0.00 82 1014.7